Vorticity
-3 -9 -8 -4 -4 -2 1 -0 5 13 11 8 9 2 -2 -0 -1 -2 2 7 11 13 11 5 4 14 21 14 8 9 11 13 13 9 7 7 6 7 8 8 10 11 11 12 11 9 9 10 10 9 9 9 9 8 7 5 4 3 3 2 1 2 4 4 5 4 4 5 4 4 6 7 7 8 8 7 7 7 7 6 5 5 5 2 1 1 1
11 1 -4 -3 -4 -5 -1 1 2 8 10 9 12 11 7 5 1 -4 -5 -3 1 10 18 17 10 10 18 18 12 9 9 8 5 2 2 3 4 6 6 7 9 8 7 6 7 7 7 7 8 9 9 8 8 8 8 7 6 5 5 5 5 4 2 1 2 2 3 4 4 5 4 3 3 4 4 4 4 4 5 6 6 6 4 2 1 1 1
29 27 20 16 13 5 1 -0 -2 0 4 5 9 13 11 11 10 8 3 -1 -3 -3 -2 4 8 9 12 17 14 7 6 5 2 0 1 3 4 5 5 5 5 6 8 8 8 7 5 4 4 4 6 7 7 7 6 6 7 6 6 6 5 4 4 4 3 3 4 4 3 3 3 2 2 2 2 3 2 2 4 6 6 6 6 6 4 3 3
16 26 29 25 22 21 16 9 4 3 1 -0 4 8 9 9 8 8 9 7 6 4 -1 -2 3 5 6 9 8 5 3 2 1 1 2 3 5 6 6 7 7 6 6 7 8 8 7 4 2 1 1 2 3 4 3 3 4 4 4 3 3 5 5 5 5 5 4 4 3 3 3 2 2 3 4 4 4 4 5 5 4 4 5 5 4 4 5
10 10 13 11 11 17 20 18 18 20 15 8 4 1 4 10 9 5 6 6 6 8 8 4 4 6 5 4 5 7 7 6 5 6 6 6 6 6 6 7 7 7 7 6 6 6 5 5 4 4 2 1 2 3 3 3 3 3 3 3 3 4 3 3 3 2 2 2 3 3 4 3 3 3 3 4 5 5 5 5 5 6 6 6 4 4 5
10 8 7 8 8 10 13 14 14 18 24 27 23 11 1 1 5 6 5 5 5 7 7 7 8 12 10 5 3 5 7 8 7 5 6 6 3 2 3 3 3 4 5 4 4 4 5 5 6 5 4 4 6 5 3 4 4 3 2 2 1 0 0 2 1 -1 -1 1 1 2 3 2 2 2 3 3 4 5 5 6 7 9 11 11 8 8 10
11 13 7 5 5 5 9 12 9 8 16 26 34 36 26 13 5 3 2 3 4 5 6 7 8 11 10 7 7 6 5 6 5 2 3 3 0 -0 0 1 3 4 4 5 5 5 5 3 4 5 5 5 5 3 3 3 2 2 2 1 2 4 6 4 1 -1 0 1 1 1 1 2 4 5 5 5 6 8 7 7 8 9 10 10 9 11 13
8 9 13 17 17 11 10 11 8 4 5 7 13 24 33 35 31 24 16 12 8 6 6 8 11 14 10 3 -0 0 1 4 4 2 2 1 -0 -0 0 1 3 4 5 7 6 4 4 2 2 4 4 3 3 1 2 2 1 3 4 3 4 5 3 -1 -3 -0 4 4 4 6 8 9 6 3 2 5 8 9 8 8 9 8 7 8 8 8 7
-1 6 18 20 13 4 4 10 13 9 3 3 3 1 5 14 23 27 29 28 26 22 19 15 15 19 21 15 8 5 3 2 1 0 1 2 2 2 2 4 7 8 8 8 6 4 4 3 3 4 4 3 1 -2 -1 1 2 4 5 4 5 6 4 5 11 14 13 9 8 7 4 1 0 1 3 5 7 7 6 7 7 6 7 7 6 5 2
9 7 2 -5 -5 1 3 7 12 12 8 9 13 9 4 3 3 5 9 15 21 25 28 26 19 16 20 22 20 19 17 13 9 4 1 -0 -1 -1 1 4 7 7 6 9 12 14 14 13 13 12 8 3 1 1 5 9 8 7 8 8 11 15 14 12 10 5 -0 -1 0 -1 -4 -4 0 3 4 5 6 6 6 6 4 4 5 3 2 4 3
10 6 3 3 9 15 14 7 7 12 12 9 10 9 8 9 8 6 5 8 10 10 12 18 17 14 15 14 11 15 20 20 20 16 10 7 4 1 1 3 4 2 -0 1 5 8 10 13 16 16 12 7 3 3 5 6 3 3 4 3 3 4 0 -5 -8 -9 -6 -2 1 1 -0 0 2 3 3 5 5 5 5 5 5 5 5 3 2 5 5
5 5 6 6 3 5 10 9 5 9 12 9 9 11 10 9 10 9 8 8 10 10 9 8 6 5 9 10 8 10 12 13 16 18 17 18 17 13 10 9 7 4 2 2 1 -3 -5 -5 -3 -0 2 4 5 3 -1 -2 -3 -5 -4 -4 -5 -7 -9 -8 -5 -0 2 3 3 2 2 2 3 5 5 5 5 5 6 5 5 4 4 5 5 5 6
6 8 4 1 3 6 9 5 -3 -0 8 8 7 9 9 11 15 16 13 8 9 15 13 6 2 2 5 5 3 5 7 7 8 10 11 13 16 16 16 15 14 13 13 12 11 9 6 3 -0 -2 -3 -1 3 1 -2 -2 -0 -0 -0 1 1 1 1 2 4 4 3 2 2 3 4 6 7 6 6 5 5 6 5 4 5 5 5 8 10 10 10
10 11 5 -0 5 8 8 6 2 1 7 9 8 7 6 6 10 14 14 12 11 12 9 6 10 15 15 10 5 4 6 7 6 6 7 7 8 10 11 11 12 13 12 12 12 13 14 13 11 9 6 4 5 5 4 4 5 6 6 5 4 4 4 4 4 4 5 6 7 7 8 7 7 6 6 6 5 4 4 5 7 8 9 11 12 13 13
13 16 13 7 9 7 4 7 8 6 8 8 7 8 9 8 11 14 16 15 12 10 10 13 17 17 15 15 15 10 8 9 9 9 9 8 8 8 7 7 7 7 7 6 6 6 6 6 6 7 7 7 6 6 6 7 7 7 7 7 7 7 7 7 8 8 9 9 9 8 8 7 7 7 6 6 7 7 8 10 10 10 10 10 9 10 13
6 9 11 11 14 12 8 8 8 9 10 8 7 10 10 6 6 9 11 10 9 8 8 10 13 12 11 14 16 14 12 12 12 12 12 11 11 11 11 12 12 11 11 10 10 10 10 10 10 10 10 10 10 11 11 11 12 12 11 11 10 10 10 10 10 9 9 9 8 8 7 7 7 7 7 8 9 9 9 10 10 9 9 9 10 12 14
4 0 1 2 5 6 6 8 7 5 5 5 6 13 17 16 16 18 15 10 6 3 1 -1 0 2 3 2 3 6 7 7 7 8 8 7 8 8 8 9 9 9 9 10 10 10 10 9 9 9 9 9 9 9 9 8 8 8 8 9 9 9 9 9 8 7 7 7 8 8 9 9 9 10 11 12 12 13 13 12 11 11 11 11 12 13 13
18 11 7 4 3 2 3 5 7 9 10 8 5 4 5 6 8 10 10 8 4 4 4 2 -0 -1 -1 -1 -0 1 3 4 5 5 4 4 5 5 5 6 6 5 5 5 5 5 5 5 5 5 6 6 6 6 6 6 7 7 7 8 8 8 8 9 9 11 12 13 14 15 16 17 16 15 15 14 13 13 13 12 12 12 13 13 13 14 14
30 26 22 19 15 11 8 5 5 6 8 9 11 9 6 1 -6 -13 -13 -8 -4 -0 3 5 4 3 3 4 4 5 7 8 7 6 5 5 6 6 7 8 7 6 6 6 6 6 7 7 7 7 8 8 8 8 8 9 10 11 11 12 13 13 14 15 15 15 15 15 16 15 14 13 13 12 12 11 11 10 10 11 12 11 11 12 12 13 15
23 24 25 25 24 22 17 13 10 7 5 3 4 5 7 9 8 5 3 4 5 5 6 5 4 5 6 8 9 10 11 11 10 10 9 9 8 8 8 8 7 8 8 9 9 10 11 11 12 13 13 14 15 16 16 16 17 17 15 15 14 14 14 14 13 12 11 10 9 8 7 6 6 7 7 7 7 8 9 9 9 8 5 6 8 10 12
20 23 23 22 23 25 26 24 20 17 15 12 9 8 8 8 9 11 12 12 12 11 10 8 7 8 9 10 10 10 10 10 11 11 11 11 12 11 11 11 12 12 13 14 15 15 15 16 16 15 15 15 15 15 15 14 13 12 11 12 12 13 14 15 15 15 15 15 16 15 16 16 16 15 15 14 14 14 14 12 10 10 9 8 8 8 5
16 19 20 21 24 26 26 25 23 21 20 20 19 19 17 16 15 15 14 14 14 13 12 13 14 13 12 13 14 14 14 14 15 14 14 15 16 15 15 16 16 16 16 16 16 15 15 15 15 14 14 13 13 14 15 17 18 20 22 23 24 24 24 24 25 25 25 26 26 25 25 25 24 24 24 23 22 21 20 18 18 18 19 18 14 11 8
5 6 10 17 22 24 23 23 24 24 23 22 21 19 19 19 20 19 19 19 19 18 18 18 18 16 16 18 19 19 19 19 19 19 20 19 19 18 18 18 18 18 18 17 16 17 17 17 17 17 17 16 17 17 17 18 19 20 20 20 20 20 19 18 17 17 16 16 16 17 17 17 16 17 16 16 17 16 15 16 17 17 16 16 15 15 16
4 4 7 10 12 13 16 19 22 23 23 22 22 21 20 20 19 19 20 19 19 20 21 20 20 20 21 21 20 19 20 21 21 21 21 21 20 19 19 18 17 16 16 15 15 15 14 14 14 14 14 14 15 14 14 14 14 14 15 15 14 13 12 13 14 15 18 19 20 20 21 20 21 23 24 25 26 25 22 20 19 17 15 13 12 12 12
10 8 8 9 8 7 8 11 13 15 17 19 20 20 21 20 20 20 20 19 19 20 20 19 19 19 19 18 17 16 16 15 15 14 13 13 12 12 12 11 11 11 11 11 11 11 12 13 14 14 15 15 14 14 14 14 14 15 15 15 17 20 22 24 26 27 27 27 26 25 25 25 25 26 27 28 29 30 30 31 29 26 22 20 17 15 13
11 11 11 12 12 11 10 10 9 9 10 10 11 13 14 14 14 14 14 14 14 14 13 13 13 13 12 11 11 11 11 10 10 10 10 10 10 10 10 11 11 12 12 12 12 13 14 15 15 16 16 17 18 20 21 22 23 25 26 28 30 30 29 27 26 24 22 21 21 21 22 23 24 23 22 21 19 19 24 31 36 36 32 27 24 21 19
12 12 12 12 12 12 12 12 12 12 12 11 10 10 10 10 10 10 10 10 10 10 10 10 10 10 10 10 10 10 10 10 10 10 10 11 11 11 13 14 13 13 14 14 15 17 18 21 24 26 28 29 30 30 31 31 31 29 27 26 24 22 21 21 20 19 19 19 20 21 21 22 23 23 23 21 17 15 16 19 30 43 46 40 36 33 29
13 13 12 12 12 13 13 12 12 13 13 13 13 13 13 12 12 11 10 11 11 11 11 11 11 11 11 10 11 11 11 11 11 12 12 13 14 15 16 17 18 20 23 24 27 29 31 32 33 32 30 28 26 24 23 21 19 17 17 18 20 20 19 16 13 12 13 14 15 15 14 14 14 14 14 12 9 10 11 11 19 36 44 37 33 36 37
13 12 12 12 12 12 13 12 13 13 13 13 13 13 13 13 13 13 13 13 12 12 12 12 11 12 12 12 12 13 13 14 14 14 15 17 20 22 24 26 28 30 31 31 31 30 29 26 23 20 19 18 16 16 15 14 15 18 20 21 19 15 10 7 8 12 15 16 16 15 13 13 13 11 10 9 6 6 8 9 15 24 28 23 21 28 34
12 13 13 12 12 12 12 12 12 12 13 13 14 13 13 13 13 12 12 12 12 12 13 13 13 13 13 13 13 14 15 16 17 19 23 27 29 31 32 31 30 27 25 23 22 20 18 16 15 14 15 14 13 13 13 15 18 19 17 15 12 10 10 14 17 17 15 13 14 15 16 18 19 18 16 14 12 11 10 11 17 23 24 20 18 20 25
11 13 14 14 15 14 13 13 13 13 14 14 13 13 13 13 13 13 13 13 14 14 14 14 14 14 13 13 14 15 17 19 22 27 31 32 30 28 25 21 18 16 15 15 15 16 18 18 17 15 14 13 14 16 17 19 19 17 15 15 15 16 17 16 13 10 10 12 16 21 27 30 31 33 35 33 30 26 20 18 21 22 17 13 14 16 20
11 11 12 14 15 15 15 13 12 12 13 13 13 13 14 13 13 14 14 14 14 14 13 13 13 13 13 14 15 18 22 25 28 29 28 24 20 17 13 11 11 11 12 12 15 19 22 22 20 17 14 13 15 17 18 19 20 19 19 18 16 16 15 10 7 8 9 10 14 23 36 41 34 29 36 45 46 41 32 23 23 21 8 0 6 12 13
12 11 11 11 11 12 13 13 13 14 13 13 13 13 13 13 13 13 13 14 13 13 13 13 13 13 14 15 18 23 26 25 23 21 17 13 11 9 7 7 9 10 11 13 16 18 20 20 18 14 12 11 13 13 15 17 17 17 16 13 11 11 10 7 6 7 7 5 7 19 39 48 34 17 22 34 37 37 33 24 20 19 10 2 5 11 12
12 11 11 11 10 11 11 12 13 14 13 13 13 12 12 13 13 13 13 13 13 13 13 13 13 14 15 17 22 25 23 18 16 15 12 7 7 8 6 4 5 7 9 12 13 13 15 17 16 14 13 14 13 12 11 12 12 12 12 11 10 10 9 7 6 7 8 7 7 16 36 46 32 17 18 23 22 26 31 28 22 19 13 6 7 11 13
13 12 11 11 11 12 12 12 13 14 14 14 14 13 13 14 13 14 14 12 13 13 12 12 14 15 16 20 24 22 16 13 12 11 8 7 9 9 3 -0 2 4 6 9 12 11 12 15 18 19 19 17 15 12 10 9 9 10 11 10 10 10 9 5 4 7 9 8 11 22 36 39 30 22 20 21 25 32 34 26 18 15 13 12 11 12 14
12 11 12 12 12 12 11 11 12 12 13 15 15 13 14 14 13 14 13 12 12 13 13 14 16 16 17 21 22 16 12 12 11 7 7 11 13 9 2 -0 3 4 3 6 9 9 8 11 17 21 21 19 17 15 13 11 10 9 9 11 11 10 7 2 3 8 10 8 17 36 44 36 28 26 20 15 20 32 34 26 17 13 13 15 14 12 14
11 11 11 11 11 12 12 12 13 13 13 15 14 13 13 14 13 13 12 12 13 14 13 14 16 16 17 21 19 13 10 10 6 4 8 12 12 8 4 4 6 7 6 7 8 6 5 7 11 14 15 15 15 16 15 15 15 14 13 13 11 9 7 4 4 9 10 8 19 44 56 45 31 26 24 20 18 21 25 26 22 16 15 15 14 16 19
11 12 12 11 12 12 12 12 13 13 13 15 14 13 13 13 13 13 12 12 14 15 14 15 16 16 18 20 17 11 8 7 3 3 7 11 10 9 6 5 7 9 10 11 10 7 4 5 7 8 9 10 11 13 15 17 18 18 18 20 18 15 13 10 8 9 11 11 15 30 46 51 43 29 20 19 17 15 18 21 17 16 17 15 15 22 24
11 12 12 12 12 13 13 12 12 13 14 15 15 14 14 13 12 12 12 13 15 15 14 15 17 17 18 20 18 11 5 3 2 3 6 7 7 4 2 2 4 5 7 11 12 9 6 5 4 4 4 5 5 7 9 11 13 15 18 21 23 22 18 15 13 10 8 11 15 17 23 39 51 47 36 26 17 12 15 17 17 20 21 15 16 26 25
12 12 12 12 12 12 12 12 12 12 13 15 15 15 14 13 12 12 13 14 15 15 13 14 17 18 18 18 17 12 8 8 9 7 4 2 2 -0 -2 1 3 2 2 7 11 12 10 8 5 3 3 3 3 4 5 4 4 7 11 13 16 21 21 19 17 14 7 8 15 14 8 11 24 35 41 43 37 26 20 16 16 24 25 16 17 24 16
12 13 12 12 12 13 13 13 12 12 12 13 14 14 14 13 13 13 13 14 16 15 12 12 16 19 18 16 15 12 10 13 17 15 6 -1 -2 -0 1 3 5 3 2 4 10 14 13 10 7 6 6 5 4 5 6 5 3 3 6 6 7 12 18 20 20 16 10 7 12 14 8 2 2 7 17 29 39 43 38 25 18 23 25 21 23 27 13
13 13 12 12 13 13 12 12 12 12 12 13 14 14 13 13 13 13 13 14 16 14 11 10 14 18 17 16 15 13 9 9 16 20 13 3 -1 2 4 6 6 5 3 4 10 15 14 11 11 12 11 10 9 8 8 8 6 4 5 6 5 5 9 16 21 20 14 9 10 13 12 7 2 1 4 10 23 40 50 40 25 22 25 24 24 25 16
14 13 12 12 12 11 10 10 10 11 11 12 14 14 13 13 13 12 11 13 16 15 11 9 11 16 17 16 14 12 10 10 13 18 17 9 3 3 5 5 5 5 5 7 11 14 14 13 13 13 11 11 13 12 10 9 9 8 6 7 7 6 5 7 14 21 21 15 10 10 12 12 8 5 4 3 7 22 41 47 37 25 20 21 26 28 25
14 15 15 14 12 11 10 11 11 12 12 12 14 15 14 13 13 13 11 12 15 16 13 8 7 12 17 17 14 12 12 11 10 12 13 9 3 2 4 5 4 5 8 11 12 12 14 14 14 13 12 11 12 12 11 9 9 10 10 8 7 8 8 6 6 12 19 22 19 13 10 11 11 10 10 8 3 2 14 32 41 35 26 26 31 29 19
13 15 16 15 13 12 12 12 13 13 14 13 13 14 14 13 13 13 12 11 12 15 15 11 7 8 13 16 14 10 9 7 7 8 10 8 6 6 7 8 6 6 9 12 12 11 12 12 12 12 13 12 9 7 8 9 8 8 10 10 8 7 8 8 7 5 8 14 21 23 19 14 12 10 10 12 12 6 1 6 18 28 33 36 30 11 -7
12 14 15 16 15 13 13 12 12 13 13 12 12 12 14 15 14 13 12 12 12 14 15 13 10 8 10 13 13 11 8 7 8 10 10 9 10 10 9 9 9 10 10 10 9 9 9 9 10 10 10 10 9 7 8 10 11 10 9 9 9 7 7 8 9 8 5 4 9 16 21 23 22 18 12 8 10 11 10 6 5 9 18 24 15 -6 -17
13 13 14 16 16 14 12 12 12 12 13 13 13 13 14 15 15 14 12 11 11 13 14 14 12 10 11 12 12 12 12 12 12 13 12 11 11 11 10 9 11 12 8 5 5 6 6 7 8 8 7 7 9 9 8 8 10 11 10 9 9 8 7 6 6 7 8 7 5 6 10 15 21 25 25 20 13 9 9 11 12 11 13 14 8 -2 -3
14 14 14 15 16 15 12 11 11 12 13 13 12 13 13 14 15 15 14 12 11 12 13 13 11 10 11 13 13 13 12 13 15 15 13 11 10 11 12 11 9 8 6 4 3 5 5 6 6 7 7 7 8 8 8 8 9 10 10 10 10 9 9 8 7 6 6 7 7 6 5 6 9 14 20 25 26 23 17 13 11 10 11 11 10 8 10
16 17 16 16 16 15 13 9 8 10 12 12 12 13 15 15 16 16 15 13 12 11 12 12 11 9 9 11 14 14 12 12 13 13 10 8 8 10 11 9 6 5 6 5 4 3 3 5 6 5 5 7 8 8 6 7 8 8 7 8 10 10 9 9 9 8 7 7 7 7 7 6 5 5 6 9 16 23 26 27 25 21 17 15 13 11 10
17 15 14 13 13 13 13 13 13 13 13 14 15 17 16 15 16 17 17 15 14 12 11 11 12 11 8 8 13 15 12 9 9 9 7 6 7 8 8 6 5 5 6 6 5 3 3 5 6 5 4 6 8 8 6 6 7 7 7 7 9 9 9 9 9 9 9 8 8 7 7 7 7 7 6 5 6 7 11 16 22 25 26 25 24 23 23
11 11 11 11 11 11 12 14 15 15 15 18 20 18 13 10 13 17 17 16 15 14 11 10 10 11 8 7 10 13 12 10 9 8 5 4 5 7 6 5 5 4 4 5 4 4 3 4 5 5 6 7 7 7 7 7 7 7 7 8 9 9 10 11 11 10 10 10 9 9 9 9 8 8 7 7 7 7 5 5 6 10 13 16 18 19 22
5 5 5 6 8 9 8 6 5 7 11 15 15 10 7 10 17 21 21 19 18 16 14 11 10 10 9 7 7 9 11 11 9 7 6 5 5 5 5 5 4 3 4 4 3 3 5 6 6 5 7 9 9 9 9 9 9 8 7 8 9 10 11 11 11 10 10 10 11 11 11 10 9 10 10 9 8 8 8 7 6 6 7 8 9 11 12
Height
5667 5668 5670 5672 5674 5675 5676 5676 5677 5678 5680 5682 5683 5684 5686 5688 5689 5689 5688 5689 5691 5692 5692 5694 5696 5697 5698 5699 5701 5703 5705 5706 5707 5708 5708 5710 5711 5712 5713 5713 5714 5715 5715 5716 5716 5717 5717 5718 5719 5719 5720 5720 5720 5721 5722 5722 5723 5724 5725 5726 5727 5727 5728 5728 5729 5730 5730 5731 5732 5732 5732 5733 5733 5734 5735 5735 5735 5736 5736 5736 5736 5736 5736 5737 5737 5737 5737
5664 5666 5667 5668 5670 5670 5671 5672 5674 5675 5676 5677 5679 5681 5683 5684 5685 5685 5686 5687 5687 5688 5690 5691 5692 5694 5696 5697 5698 5700 5701 5702 5703 5705 5706 5707 5708 5709 5710 5711 5712 5712 5713 5713 5714 5714 5715 5716 5716 5717 5718 5718 5719 5719 5720 5720 5721 5721 5722 5723 5724 5724 5725 5725 5726 5727 5727 5728 5728 5729 5729 5729 5730 5730 5731 5731 5732 5732 5732 5732 5733 5733 5733 5734 5734 5734 5734
5661 5662 5663 5664 5665 5666 5667 5669 5671 5672 5673 5674 5676 5677 5679 5680 5681 5682 5683 5683 5684 5685 5687 5688 5690 5691 5693 5694 5695 5696 5698 5699 5700 5702 5703 5704 5705 5706 5707 5708 5709 5710 5710 5711 5711 5712 5713 5713 5714 5714 5715 5715 5716 5716 5717 5717 5718 5719 5719 5720 5720 5721 5721 5721 5722 5723 5724 5724 5725 5725 5726 5726 5726 5726 5727 5727 5727 5728 5728 5728 5729 5730 5730 5730 5730 5731 5731
5657 5658 5659 5660 5661 5663 5663 5665 5668 5669 5670 5671 5673 5674 5675 5676 5677 5679 5679 5680 5681 5683 5684 5685 5687 5688 5689 5690 5692 5693 5694 5696 5697 5698 5699 5701 5702 5703 5704 5705 5706 5707 5707 5708 5709 5709 5710 5710 5711 5711 5712 5712 5713 5713 5714 5714 5715 5715 5716 5716 5717 5717 5718 5718 5718 5719 5719 5720 5720 5721 5722 5722 5723 5723 5723 5723 5723 5724 5724 5724 5724 5725 5725 5726 5726 5727 5727
5655 5656 5656 5657 5658 5659 5660 5662 5664 5665 5666 5667 5669 5670 5671 5673 5674 5674 5675 5676 5678 5679 5680 5681 5682 5683 5685 5686 5688 5689 5691 5692 5693 5695 5696 5697 5698 5699 5700 5701 5702 5703 5704 5705 5705 5706 5706 5707 5707 5708 5708 5709 5709 5709 5710 5710 5711 5711 5712 5712 5712 5713 5713 5714 5714 5714 5715 5715 5716 5716 5717 5718 5719 5719 5719 5719 5719 5719 5720 5720 5720 5720 5721 5721 5721 5721 5722
5652 5652 5653 5654 5655 5655 5657 5660 5660 5660 5661 5662 5664 5665 5667 5668 5669 5670 5670 5672 5674 5675 5676 5677 5678 5679 5681 5682 5684 5685 5687 5688 5690 5691 5692 5694 5695 5696 5697 5697 5698 5699 5700 5701 5701 5702 5702 5703 5703 5704 5705 5705 5705 5705 5706 5706 5706 5707 5707 5708 5708 5708 5708 5709 5709 5709 5710 5711 5711 5712 5712 5713 5714 5714 5714 5714 5714 5714 5714 5715 5715 5715 5716 5716 5715 5716 5716
5649 5649 5649 5650 5651 5652 5654 5656 5656 5656 5657 5658 5659 5660 5662 5663 5665 5666 5667 5668 5670 5671 5672 5673 5674 5675 5676 5678 5679 5681 5682 5684 5685 5687 5688 5690 5690 5691 5692 5693 5694 5695 5696 5696 5697 5698 5698 5698 5699 5699 5700 5701 5701 5701 5701 5701 5701 5702 5703 5703 5703 5703 5703 5703 5704 5704 5705 5705 5706 5707 5707 5708 5708 5709 5709 5709 5709 5709 5709 5710 5710 5710 5711 5711 5711 5711 5711
5645 5646 5646 5646 5647 5649 5650 5651 5651 5652 5654 5655 5655 5656 5657 5658 5660 5661 5662 5663 5665 5666 5667 5668 5669 5669 5671 5672 5674 5675 5677 5679 5681 5682 5684 5685 5686 5687 5688 5689 5689 5690 5691 5692 5692 5692 5693 5693 5694 5694 5695 5696 5696 5696 5696 5696 5696 5697 5698 5698 5698 5698 5698 5698 5698 5699 5699 5700 5701 5701 5702 5702 5703 5703 5703 5703 5703 5704 5704 5704 5704 5705 5705 5705 5705 5705 5705
5642 5644 5644 5642 5643 5644 5645 5646 5648 5648 5650 5651 5651 5652 5653 5654 5655 5656 5657 5658 5660 5661 5662 5664 5664 5664 5665 5667 5668 5670 5672 5673 5675 5676 5678 5679 5680 5682 5683 5684 5684 5685 5685 5686 5686 5687 5687 5688 5688 5689 5689 5690 5690 5691 5691 5691 5691 5691 5692 5692 5693 5692 5693 5693 5693 5693 5694 5694 5695 5696 5696 5696 5697 5697 5697 5697 5697 5698 5699 5699 5699 5699 5700 5701 5700 5699 5699
5639 5641 5641 5639 5639 5639 5640 5643 5644 5644 5646 5647 5647 5649 5650 5650 5651 5652 5653 5655 5655 5656 5658 5659 5660 5660 5661 5662 5664 5666 5667 5668 5670 5671 5672 5673 5675 5676 5677 5679 5679 5679 5680 5680 5681 5681 5681 5682 5683 5683 5684 5685 5685 5686 5686 5686 5686 5686 5686 5686 5687 5686 5686 5687 5687 5687 5687 5688 5689 5690 5690 5690 5691 5691 5691 5691 5691 5691 5692 5693 5693 5693 5694 5695 5695 5694 5693
5635 5635 5636 5636 5634 5634 5636 5639 5640 5641 5642 5642 5643 5645 5646 5646 5647 5648 5649 5651 5651 5652 5654 5654 5655 5655 5655 5657 5660 5661 5663 5664 5665 5666 5667 5668 5670 5671 5672 5673 5674 5674 5674 5674 5675 5675 5675 5676 5677 5678 5678 5679 5680 5680 5680 5680 5680 5680 5680 5680 5680 5680 5680 5680 5680 5680 5681 5681 5682 5683 5683 5683 5684 5684 5684 5684 5685 5685 5685 5686 5686 5687 5688 5689 5689 5688 5688
5631 5631 5631 5631 5630 5630 5632 5634 5636 5637 5638 5638 5640 5640 5640 5642 5643 5644 5645 5646 5647 5648 5649 5649 5649 5650 5650 5653 5657 5657 5658 5659 5660 5661 5663 5664 5665 5666 5667 5667 5667 5667 5668 5668 5669 5669 5669 5670 5671 5671 5671 5671 5672 5672 5672 5672 5672 5672 5673 5673 5673 5673 5673 5673 5673 5673 5673 5674 5674 5675 5675 5675 5676 5676 5677 5677 5678 5678 5678 5678 5679 5679 5680 5681 5681 5681 5681
5626 5626 5626 5625 5625 5626 5628 5629 5631 5633 5633 5634 5635 5635 5636 5638 5639 5640 5641 5641 5642 5643 5643 5642 5644 5646 5646 5649 5652 5652 5652 5654 5655 5656 5657 5658 5659 5660 5660 5661 5661 5661 5661 5662 5662 5663 5663 5663 5664 5664 5664 5664 5664 5664 5664 5664 5665 5665 5665 5665 5666 5666 5666 5666 5666 5666 5666 5666 5666 5667 5667 5667 5667 5668 5668 5669 5669 5670 5670 5670 5671 5672 5672 5672 5673 5673 5673
5621 5621 5622 5620 5619 5621 5624 5625 5626 5628 5628 5629 5630 5630 5632 5634 5634 5634 5636 5636 5637 5637 5636 5638 5641 5642 5642 5644 5646 5646 5647 5648 5649 5650 5651 5651 5653 5653 5654 5654 5654 5654 5655 5655 5655 5656 5656 5656 5657 5657 5657 5657 5657 5657 5657 5657 5658 5658 5658 5658 5658 5658 5658 5658 5658 5657 5657 5657 5658 5658 5659 5659 5659 5659 5660 5660 5661 5662 5662 5662 5662 5664 5664 5664 5665 5665 5665
5616 5617 5617 5615 5615 5618 5620 5620 5621 5623 5623 5624 5625 5626 5628 5629 5629 5629 5631 5632 5631 5631 5632 5635 5637 5637 5637 5638 5639 5640 5641 5642 5643 5644 5645 5645 5646 5647 5647 5648 5648 5648 5648 5649 5649 5649 5649 5650 5650 5650 5650 5650 5650 5650 5650 5650 5650 5650 5650 5650 5650 5650 5650 5650 5649 5649 5649 5649 5649 5649 5650 5650 5650 5650 5651 5651 5652 5652 5653 5653 5654 5655 5656 5656 5657 5657 5657
5612 5611 5611 5610 5611 5614 5615 5615 5616 5618 5618 5619 5620 5621 5622 5623 5623 5624 5626 5627 5626 5627 5629 5630 5631 5632 5632 5633 5634 5635 5636 5636 5637 5638 5639 5639 5640 5640 5641 5641 5641 5641 5641 5642 5642 5642 5643 5643 5643 5642 5642 5642 5642 5642 5642 5642 5642 5642 5642 5642 5641 5641 5641 5641 5641 5640 5640 5640 5640 5640 5640 5640 5641 5641 5642 5642 5642 5643 5644 5645 5645 5646 5647 5648 5648 5649 5649
5606 5605 5605 5606 5607 5608 5609 5610 5611 5612 5612 5614 5615 5615 5616 5617 5618 5619 5621 5622 5622 5623 5624 5624 5625 5627 5627 5628 5629 5630 5630 5631 5632 5632 5633 5634 5634 5634 5634 5635 5635 5635 5635 5635 5636 5636 5636 5636 5636 5636 5635 5635 5635 5634 5634 5634 5634 5634 5633 5633 5633 5633 5632 5632 5632 5632 5631 5631 5631 5631 5631 5631 5631 5632 5632 5632 5633 5634 5634 5635 5636 5637 5638 5639 5640 5641 5641
5599 5599 5600 5601 5601 5602 5604 5605 5606 5606 5607 5608 5609 5610 5612 5612 5613 5614 5616 5616 5617 5617 5618 5619 5620 5621 5622 5622 5623 5624 5624 5625 5626 5626 5627 5627 5628 5628 5627 5628 5628 5628 5628 5628 5629 5628 5628 5628 5628 5628 5628 5627 5626 5626 5626 5626 5625 5625 5624 5624 5623 5623 5623 5622 5622 5622 5622 5622 5622 5621 5621 5621 5621 5622 5623 5623 5624 5625 5625 5626 5627 5628 5629 5631 5632 5633 5633
5592 5593 5594 5595 5596 5596 5597 5599 5600 5600 5601 5602 5603 5605 5606 5607 5607 5608 5609 5610 5611 5611 5612 5613 5613 5614 5615 5616 5617 5617 5618 5618 5619 5619 5620 5620 5620 5620 5620 5620 5621 5620 5620 5620 5620 5620 5620 5620 5620 5620 5619 5618 5618 5617 5617 5617 5616 5615 5615 5614 5614 5614 5613 5612 5612 5612 5612 5612 5612 5612 5612 5612 5612 5612 5612 5613 5614 5615 5616 5617 5617 5618 5620 5622 5623 5624 5625
5587 5588 5588 5589 5589 5590 5591 5592 5593 5594 5595 5596 5597 5598 5599 5600 5601 5602 5603 5603 5604 5605 5606 5606 5607 5608 5609 5609 5610 5610 5610 5611 5611 5612 5612 5612 5611 5611 5611 5612 5612 5612 5612 5612 5611 5611 5611 5611 5611 5611 5610 5609 5608 5608 5608 5607 5605 5605 5605 5604 5604 5604 5603 5602 5602 5602 5602 5602 5602 5602 5602 5602 5602 5602 5602 5603 5603 5604 5606 5607 5608 5609 5610 5612 5613 5615 5616
5584 5584 5584 5584 5584 5584 5585 5586 5587 5588 5589 5590 5590 5591 5592 5593 5594 5595 5596 5597 5598 5599 5599 5600 5601 5601 5602 5603 5603 5602 5602 5603 5604 5604 5604 5604 5603 5603 5603 5604 5604 5604 5603 5603 5603 5603 5603 5602 5602 5602 5601 5600 5599 5599 5598 5597 5595 5595 5595 5595 5595 5594 5593 5593 5592 5592 5592 5591 5591 5592 5592 5591 5591 5592 5592 5592 5593 5594 5595 5595 5597 5599 5600 5601 5603 5605 5607
5581 5580 5580 5580 5579 5579 5579 5580 5582 5582 5583 5584 5584 5585 5585 5586 5587 5588 5589 5590 5591 5592 5592 5593 5594 5594 5594 5596 5596 5595 5595 5596 5596 5596 5596 5596 5596 5596 5596 5596 5596 5596 5596 5595 5595 5595 5594 5594 5594 5593 5592 5592 5591 5590 5589 5587 5586 5586 5586 5586 5586 5585 5584 5583 5582 5582 5581 5581 5581 5580 5581 5581 5580 5581 5582 5582 5582 5583 5583 5582 5585 5589 5590 5590 5593 5595 5597
5578 5577 5576 5576 5576 5575 5575 5575 5577 5577 5578 5578 5578 5579 5580 5581 5582 5582 5583 5583 5584 5585 5585 5586 5587 5586 5588 5589 5589 5588 5589 5589 5589 5589 5589 5589 5589 5589 5588 5588 5588 5588 5588 5587 5587 5586 5586 5586 5585 5585 5584 5583 5582 5581 5579 5577 5577 5577 5577 5577 5576 5575 5574 5573 5572 5571 5571 5570 5570 5570 5570 5570 5569 5570 5570 5571 5571 5572 5571 5571 5573 5576 5577 5579 5581 5584 5587
5574 5574 5573 5573 5573 5572 5572 5572 5573 5573 5574 5574 5574 5574 5575 5576 5576 5577 5577 5578 5578 5579 5579 5580 5580 5580 5581 5582 5582 5582 5582 5582 5583 5583 5583 5582 5582 5582 5582 5582 5581 5581 5581 5580 5579 5578 5578 5578 5577 5577 5576 5575 5573 5572 5570 5568 5568 5568 5568 5567 5567 5566 5565 5564 5563 5562 5561 5560 5560 5559 5559 5558 5559 5559 5559 5559 5560 5560 5559 5560 5561 5563 5564 5567 5569 5572 5577
5571 5570 5570 5571 5571 5570 5569 5569 5570 5570 5570 5570 5570 5570 5571 5571 5572 5572 5572 5573 5573 5574 5574 5574 5575 5575 5576 5576 5576 5576 5577 5577 5577 5577 5577 5577 5576 5576 5576 5575 5575 5574 5573 5572 5571 5571 5570 5570 5570 5569 5567 5566 5565 5563 5562 5561 5561 5560 5559 5559 5558 5558 5556 5555 5554 5553 5553 5552 5551 5550 5549 5548 5549 5549 5549 5549 5549 5548 5548 5549 5549 5550 5551 5554 5557 5561 5566
5568 5568 5567 5568 5568 5567 5567 5567 5566 5567 5567 5567 5567 5567 5567 5567 5568 5568 5568 5568 5569 5569 5569 5569 5570 5571 5571 5571 5571 5571 5571 5571 5571 5571 5571 5571 5570 5570 5569 5569 5568 5567 5566 5565 5564 5564 5563 5563 5562 5561 5560 5558 5557 5556 5555 5554 5554 5553 5552 5551 5551 5550 5549 5548 5547 5547 5546 5545 5544 5542 5541 5540 5540 5540 5540 5540 5540 5539 5538 5538 5539 5539 5540 5542 5545 5549 5554
5565 5565 5565 5564 5564 5564 5564 5563 5563 5564 5564 5563 5563 5563 5564 5564 5564 5564 5564 5564 5564 5564 5565 5565 5565 5566 5566 5566 5566 5566 5566 5566 5566 5566 5565 5565 5565 5564 5563 5562 5561 5560 5559 5559 5558 5558 5557 5556 5555 5554 5553 5552 5551 5550 5549 5549 5548 5547 5547 5546 5545 5544 5543 5542 5541 5541 5540 5539 5538 5536 5535 5534 5533 5533 5533 5532 5532 5531 5530 5530 5529 5530 5530 5532 5535 5538 5542
5562 5562 5561 5561 5561 5561 5560 5560 5560 5560 5560 5560 5560 5560 5560 5560 5560 5560 5560 5560 5560 5560 5560 5561 5561 5561 5561 5561 5561 5561 5561 5561 5561 5561 5560 5560 5559 5558 5558 5557 5555 5555 5554 5553 5552 5552 5551 5550 5549 5548 5548 5547 5546 5546 5545 5545 5544 5543 5542 5541 5541 5540 5539 5538 5537 5536 5535 5534 5532 5531 5529 5528 5527 5526 5526 5525 5524 5524 5523 5522 5522 5523 5522 5523 5526 5529 5532
5558 5558 5558 5557 5557 5557 5557 5557 5556 5557 5557 5557 5557 5557 5557 5557 5557 5556 5556 5557 5557 5557 5557 5557 5557 5557 5557 5557 5557 5557 5557 5557 5556 5556 5555 5555 5554 5553 5552 5551 5551 5550 5549 5549 5548 5547 5547 5546 5545 5544 5544 5543 5543 5543 5542 5541 5540 5539 5538 5537 5537 5536 5535 5534 5533 5532 5530 5529 5527 5525 5523 5521 5520 5519 5518 5518 5517 5516 5516 5516 5516 5516 5517 5518 5520 5521 5523
5555 5555 5554 5554 5554 5554 5553 5553 5553 5553 5553 5553 5553 5553 5553 5553 5553 5553 5553 5553 5553 5553 5553 5553 5553 5553 5553 5553 5553 5553 5553 5552 5552 5551 5550 5550 5549 5548 5548 5547 5547 5546 5546 5545 5545 5544 5543 5543 5542 5541 5541 5541 5540 5539 5539 5538 5537 5536 5535 5534 5533 5533 5532 5531 5529 5528 5526 5523 5521 5519 5516 5514 5512 5510 5509 5509 5508 5508 5508 5509 5509 5511 5513 5514 5515 5515 5516
5552 5552 5551 5551 5551 5551 5550 5550 5550 5550 5550 5550 5550 5550 5550 5550 5550 5550 5550 5550 5550 5550 5550 5550 5550 5549 5549 5549 5549 5549 5548 5547 5547 5546 5546 5546 5545 5545 5545 5545 5545 5544 5544 5543 5542 5542 5541 5540 5539 5539 5539 5538 5538 5537 5536 5535 5534 5533 5532 5531 5530 5530 5528 5527 5525 5523 5521 5518 5515 5512 5509 5505 5503 5501 5500 5499 5499 5499 5500 5501 5503 5507 5509 5510 5510 5510 5512
5549 5548 5548 5548 5547 5547 5547 5546 5546 5546 5546 5546 5546 5546 5546 5546 5546 5546 5546 5546 5546 5546 5546 5546 5546 5545 5545 5545 5545 5544 5544 5543 5543 5543 5543 5543 5543 5543 5543 5543 5543 5542 5542 5541 5540 5540 5539 5538 5537 5537 5536 5536 5535 5534 5533 5532 5531 5531 5530 5528 5527 5526 5525 5523 5521 5519 5517 5514 5510 5506 5501 5498 5495 5493 5492 5491 5490 5491 5492 5494 5498 5502 5504 5505 5505 5506 5507
5546 5545 5545 5544 5544 5544 5543 5543 5543 5543 5543 5543 5543 5543 5543 5543 5543 5543 5543 5542 5542 5542 5542 5542 5542 5541 5541 5541 5541 5540 5540 5540 5540 5540 5541 5541 5541 5541 5541 5541 5541 5541 5540 5540 5539 5538 5537 5536 5535 5535 5534 5534 5533 5532 5531 5530 5529 5528 5527 5526 5525 5523 5521 5520 5518 5516 5513 5509 5505 5500 5495 5491 5489 5488 5487 5486 5485 5486 5488 5490 5493 5496 5498 5500 5501 5502 5503
5543 5542 5541 5541 5540 5540 5540 5539 5539 5539 5539 5539 5539 5539 5539 5539 5539 5539 5539 5539 5539 5539 5539 5538 5538 5538 5537 5537 5537 5537 5537 5538 5538 5538 5539 5539 5539 5539 5540 5540 5540 5539 5539 5538 5537 5537 5536 5534 5533 5533 5532 5532 5531 5530 5529 5528 5527 5526 5525 5523 5522 5520 5518 5516 5515 5512 5509 5504 5500 5494 5490 5486 5484 5484 5483 5482 5483 5484 5485 5487 5489 5491 5493 5495 5497 5498 5499
5539 5539 5538 5538 5537 5537 5537 5536 5536 5536 5536 5536 5536 5535 5535 5535 5535 5535 5535 5535 5535 5535 5535 5535 5534 5534 5534 5534 5534 5535 5535 5536 5536 5537 5537 5537 5538 5538 5538 5538 5538 5538 5538 5537 5536 5535 5534 5533 5532 5532 5531 5530 5529 5528 5527 5526 5525 5524 5522 5521 5519 5518 5516 5514 5512 5509 5505 5501 5496 5490 5486 5482 5481 5480 5480 5480 5480 5481 5482 5484 5485 5486 5489 5492 5494 5495 5497
5536 5535 5535 5534 5534 5534 5533 5533 5533 5532 5532 5532 5532 5532 5532 5532 5532 5532 5532 5532 5532 5532 5532 5532 5531 5531 5531 5532 5532 5533 5534 5534 5535 5535 5535 5536 5536 5536 5536 5537 5537 5537 5536 5536 5535 5534 5533 5532 5532 5531 5530 5528 5527 5526 5525 5524 5523 5522 5520 5519 5517 5516 5514 5512 5510 5506 5503 5498 5493 5487 5482 5479 5478 5478 5478 5478 5479 5479 5480 5481 5482 5484 5486 5489 5490 5492 5494
5533 5532 5531 5531 5531 5530 5530 5530 5529 5529 5529 5529 5529 5529 5528 5529 5529 5529 5529 5529 5529 5529 5529 5528 5528 5529 5529 5529 5530 5531 5532 5532 5533 5533 5534 5534 5534 5535 5535 5535 5535 5535 5535 5534 5534 5533 5532 5532 5531 5530 5528 5527 5526 5524 5523 5522 5521 5520 5519 5518 5516 5514 5512 5510 5508 5504 5501 5497 5491 5485 5480 5477 5476 5476 5477 5477 5478 5478 5479 5480 5481 5483 5485 5486 5488 5490 5493
5529 5529 5528 5528 5527 5527 5527 5526 5526 5526 5526 5526 5525 5525 5525 5525 5526 5526 5526 5526 5526 5526 5526 5526 5526 5526 5527 5527 5528 5529 5530 5531 5531 5532 5532 5533 5533 5533 5534 5534 5534 5533 5533 5533 5532 5532 5531 5531 5530 5529 5527 5526 5525 5523 5522 5521 5520 5519 5518 5516 5514 5513 5511 5508 5506 5503 5500 5495 5490 5484 5480 5477 5475 5475 5476 5477 5477 5477 5478 5479 5480 5481 5483 5485 5487 5489 5491
5526 5526 5525 5525 5524 5524 5524 5523 5523 5523 5522 5522 5522 5522 5522 5522 5523 5523 5523 5523 5523 5523 5523 5523 5524 5524 5524 5525 5526 5527 5528 5529 5529 5530 5531 5531 5531 5532 5532 5532 5532 5532 5532 5531 5531 5530 5530 5529 5528 5527 5526 5525 5524 5523 5522 5521 5519 5518 5516 5515 5513 5511 5509 5506 5504 5502 5499 5495 5491 5486 5483 5479 5477 5476 5476 5476 5476 5477 5477 5478 5479 5480 5481 5483 5485 5487 5489
5523 5523 5522 5522 5521 5521 5520 5520 5520 5519 5519 5519 5519 5519 5519 5519 5520 5520 5520 5520 5520 5521 5521 5521 5521 5522 5522 5523 5524 5525 5526 5526 5527 5528 5529 5529 5530 5530 5530 5530 5530 5530 5530 5530 5529 5529 5529 5528 5527 5526 5525 5524 5524 5523 5522 5520 5519 5518 5516 5514 5512 5510 5508 5505 5503 5501 5499 5496 5492 5489 5486 5483 5480 5478 5477 5476 5476 5476 5476 5477 5477 5479 5480 5482 5484 5486 5488
5520 5520 5519 5519 5519 5518 5518 5517 5517 5517 5516 5516 5516 5516 5517 5517 5517 5517 5518 5518 5518 5518 5519 5519 5519 5520 5520 5521 5522 5523 5524 5524 5525 5526 5526 5527 5528 5528 5529 5529 5529 5529 5529 5528 5528 5528 5527 5527 5526 5525 5524 5523 5523 5522 5521 5520 5519 5517 5516 5514 5512 5510 5507 5505 5503 5501 5499 5496 5494 5491 5489 5486 5484 5482 5480 5478 5477 5475 5475 5475 5476 5478 5479 5481 5484 5486 5488
5518 5517 5517 5516 5516 5516 5515 5515 5514 5514 5514 5514 5514 5514 5514 5514 5514 5515 5515 5515 5516 5516 5516 5517 5517 5518 5518 5519 5520 5520 5521 5522 5523 5523 5524 5525 5526 5526 5527 5527 5527 5527 5527 5527 5527 5526 5526 5525 5525 5524 5523 5522 5522 5521 5520 5519 5518 5517 5515 5514 5512 5510 5508 5505 5503 5501 5499 5497 5495 5493 5490 5489 5487 5485 5483 5481 5479 5477 5475 5475 5476 5478 5479 5481 5483 5486 5488
5515 5515 5514 5514 5514 5513 5512 5512 5511 5511 5511 5511 5511 5511 5511 5511 5512 5512 5512 5513 5513 5514 5514 5515 5515 5516 5516 5517 5518 5518 5519 5520 5520 5521 5522 5523 5524 5524 5525 5525 5525 5525 5525 5525 5525 5525 5524 5524 5524 5523 5522 5522 5521 5520 5519 5518 5517 5516 5515 5514 5512 5511 5509 5506 5504 5502 5500 5498 5496 5494 5492 5490 5489 5487 5485 5484 5482 5480 5478 5477 5478 5479 5480 5482 5484 5487 5489
5513 5512 5512 5512 5511 5511 5510 5509 5509 5509 5509 5509 5508 5508 5509 5509 5509 5510 5510 5510 5511 5511 5512 5513 5513 5514 5514 5515 5515 5516 5517 5517 5518 5519 5520 5521 5521 5522 5523 5523 5523 5523 5524 5524 5523 5523 5523 5523 5522 5522 5521 5521 5520 5519 5518 5517 5516 5515 5514 5513 5512 5511 5509 5507 5505 5503 5501 5499 5497 5495 5494 5492 5491 5489 5488 5487 5485 5484 5482 5481 5481 5481 5482 5484 5486 5488 5491
5510 5510 5509 5509 5509 5508 5508 5507 5507 5506 5506 5506 5506 5506 5506 5506 5507 5507 5508 5508 5508 5509 5509 5510 5511 5512 5512 5513 5513 5514 5515 5515 5516 5517 5518 5518 5519 5520 5520 5521 5521 5522 5522 5522 5522 5522 5522 5521 5521 5521 5520 5520 5519 5518 5517 5517 5516 5515 5514 5512 5511 5510 5509 5507 5506 5504 5503 5501 5499 5497 5495 5493 5492 5491 5490 5489 5488 5487 5486 5485 5485 5485 5485 5487 5488 5490 5493
5507 5507 5507 5507 5506 5506 5505 5505 5504 5504 5504 5503 5504 5504 5504 5504 5504 5505 5505 5505 5506 5506 5507 5508 5509 5509 5510 5511 5511 5512 5513 5513 5514 5515 5515 5516 5517 5517 5518 5519 5519 5519 5520 5520 5520 5520 5520 5520 5519 5519 5519 5518 5518 5517 5517 5516 5515 5514 5513 5512 5511 5510 5509 5507 5506 5505 5503 5502 5500 5498 5497 5495 5494 5493 5492 5491 5490 5490 5489 5489 5489 5489 5489 5490 5492 5493 5494
5504 5504 5504 5504 5504 5503 5503 5502 5502 5501 5501 5501 5501 5501 5501 5501 5502 5502 5503 5503 5503 5504 5505 5505 5506 5507 5508 5509 5509 5510 5511 5511 5512 5513 5513 5514 5514 5515 5516 5516 5517 5517 5517 5518 5518 5518 5518 5518 5518 5517 5517 5517 5517 5516 5516 5515 5514 5514 5513 5512 5511 5510 5509 5507 5506 5505 5503 5502 5501 5500 5498 5497 5495 5494 5493 5492 5492 5492 5491 5491 5492 5492 5492 5493 5494 5495 5496
5501 5501 5501 5502 5501 5501 5501 5500 5500 5499 5499 5498 5498 5499 5499 5499 5499 5499 5500 5500 5501 5502 5502 5503 5504 5505 5506 5506 5507 5508 5509 5509 5510 5510 5511 5512 5512 5513 5513 5514 5514 5515 5515 5516 5516 5516 5516 5516 5516 5516 5516 5516 5515 5515 5514 5514 5513 5513 5512 5511 5510 5509 5508 5507 5506 5505 5504 5503 5502 5501 5500 5498 5497 5496 5495 5494 5493 5493 5493 5493 5493 5494 5494 5494 5495 5495 5496
5499 5499 5499 5499 5499 5499 5499 5499 5498 5497 5497 5496 5496 5496 5497 5497 5497 5497 5497 5498 5498 5499 5500 5501 5501 5502 5503 5504 5505 5506 5506 5507 5508 5508 5509 5510 5510 5511 5511 5512 5513 5513 5513 5514 5514 5514 5514 5514 5514 5514 5514 5514 5514 5514 5513 5513 5512 5512 5511 5510 5510 5509 5508 5507 5506 5505 5504 5503 5502 5501 5500 5500 5499 5498 5497 5496 5495 5495 5494 5494 5494 5494 5494 5495 5495 5495 5496
5497 5497 5497 5497 5497 5497 5497 5497 5496 5495 5495 5494 5494 5494 5494 5494 5494 5494 5495 5495 5495 5496 5497 5498 5499 5500 5501 5502 5503 5503 5504 5505 5506 5506 5507 5508 5508 5509 5510 5510 5511 5511 5512 5512 5512 5513 5513 5513 5513 5513 5513 5512 5512 5512 5512 5511 5511 5510 5510 5509 5509 5508 5507 5507 5506 5505 5504 5503 5502 5502 5501 5500 5499 5498 5498 5497 5497 5496 5495 5495 5495 5495 5495 5495 5495 5495 5495
5495 5495 5495 5495 5495 5494 5494 5494 5494 5493 5493 5492 5492 5492 5492 5492 5492 5492 5492 5492 5492 5493 5494 5495 5496 5497 5498 5499 5500 5501 5501 5502 5503 5504 5505 5506 5506 5507 5507 5508 5509 5509 5510 5510 5510 5511 5511 5511 5511 5511 5511 5511 5511 5510 5510 5510 5509 5509 5508 5508 5507 5507 5506 5506 5505 5504 5504 5503 5502 5502 5501 5500 5499 5499 5498 5497 5497 5497 5496 5496 5495 5495 5495 5495 5495 5495 5495
5493 5493 5493 5493 5493 5492 5492 5492 5491 5491 5490 5490 5490 5490 5489 5489 5489 5489 5489 5489 5489 5490 5490 5491 5493 5494 5494 5495 5497 5498 5499 5500 5500 5501 5502 5503 5504 5504 5505 5506 5506 5507 5507 5508 5508 5508 5509 5509 5509 5509 5509 5509 5509 5509 5508 5508 5508 5507 5507 5506 5506 5505 5505 5504 5504 5503 5503 5502 5502 5501 5500 5500 5499 5499 5498 5497 5497 5497 5496 5496 5496 5496 5495 5495 5495 5495 5495